[[{"header":{"parameterUnit":"m.s-1","parameterCategory":1,"la1":30.2991,"la2":30.254,"lo1":-89.0895,"lo2":-89.0444,"dy":0.0017,"dx":0.0017,"nx":28,"ny":28,"refTime":"2024-03-02T03:00:00:Z","depth":0,"parameterNumber":2,"parameterNumberName":"U-component_of_WINDS"},"data":[0,0,0,0,0,0,0,0,0,0,0,0,0,0,0,0,0,0,0,0,0,0,0,0,0,0,0,0,0,0,0,0,0,0,0,0,0,0,0,0,0,0,0,0,0,0,0,0,0,0,0,0,0,0,0,0,0,0,-0.4814,-0.4814,0,-0.4796,-0.4796,-0.4796,-0.4775,-0.4775,-0.4775,-0.4774,-0.4757,-0.4757,-0.4757,0,0,0,0,0,0,0,0,0,0,0,0,0,-0.4831,-0.4831,-0.4814,-0.4814,-0.4814,-0.4796,-0.4796,-0.4796,-0.4775,-0.4775,-0.4775,-0.4774,-0.4757,-0.4757,-0.4757,0,0,0,0,0,0,0,0,0,0,0,0,0,-0.4819,-0.483,-0.4814,-0.4801,-0.48,-0.4796,-0.4796,-0.4796,-0.4775,-0.4775,-0.4775,-0.4774,-0.4757,-0.4757,-0.4757,-0.4764,0,0,-0.4756,-0.4756,0,0,0,0,0,0,0,0,-0.482,-0.4819,-0.4803,-0.4802,-0.4801,-0.4788,-0.4796,-0.4785,-0.4776,-0.4785,-0.4774,-0.4774,-0.4768,-0.4766,-0.4764,-0.4764,-0.4763,-0.4756,-0.4756,-0.4755,-0.4755,0,0,0,0,0,0,0,-0.4821,-0.4819,-0.4807,-0.4803,-0.4802,-0.4797,-0.4794,-0.4794,-0.4779,-0.4784,-0.4782,-0.4781,-0.4767,-0.4764,-0.4764,-0.4763,-0.4756,-0.4756,-0.4755,-0.4755,-0.4767,-0.4768,0,0,0,0,0,0,-0.4823,-0.482,-0.4808,-0.4807,-0.4809,-0.4797,-0.4794,-0.4792,-0.4779,-0.4777,-0.4781,-0.478,-0.4765,-0.4764,-0.4763,-0.4771,-0.4755,-0.4755,-0.4755,-0.4767,-0.4768,-0.4768,0,0,0,0,0,0,-0.4824,-0.4823,-0.4808,-0.4813,-0.4811,-0.4797,-0.4795,-0.4792,-0.479,-0.4777,-0.4774,-0.4781,-0.4765,-0.4763,-0.4764,-0.4771,-0.4755,-0.4755,-0.4766,-0.4767,-0.4768,-0.4788,0,0,0,0,0,0,-0.4824,-0.4823,-0.4826,-0.4813,-0.4811,-0.481,-0.4795,-0.4792,-0.4789,-0.4788,-0.4776,-0.4774,-0.4764,-0.4765,-0.4764,-0.477,-0.4755,-0.4766,-0.4767,-0.4768,-0.4787,-0.479,-0.4792,0,0,0,0,0,-0.4825,-0.4832,-0.4826,-0.4824,-0.4814,-0.481,-0.4809,-0.4797,-0.479,-0.4793,-0.4784,-0.4774,-0.477,-0.4765,-0.4764,-0.477,-0.4765,-0.4766,-0.4768,-0.4786,-0.4789,-0.4792,0,0,0,0,0,0,-0.4846,-0.483,-0.4823,-0.4826,-0.482,-0.4807,-0.481,-0.4801,-0.4796,-0.4795,-0.4781,-0.4778,-0.4781,-0.4775,-0.477,-0.4777,-0.4766,-0.4767,-0.4781,-0.4783,-0.4786,-0.4788,-0.4754,0,0,0,0,0,-0.4851,-0.4849,-0.4836,-0.484,-0.4837,-0.4824,-0.4822,-0.4814,-0.4806,-0.4804,-0.4795,-0.4789,-0.4786,-0.4784,-0.4781,-0.4786,-0.4783,-0.4789,-0.4792,-0.4794,-0.4795,-0.4798,-0.48,-0.4772,-0.4772,-0.4772,0,0,-0.4861,-0.4853,-0.4852,-0.4844,-0.4838,-0.4837,-0.4822,-0.4821,-0.482,-0.4804,-0.4804,-0.4797,-0.4789,-0.4792,-0.4793,-0.4788,-0.4802,-0.4795,-0.4797,-0.4797,-0.4799,-0.4802,-0.4804,-0.4772,-0.4772,-0.4772,0,0,-0.488,-0.4873,-0.4876,-0.487,-0.486,-0.4852,-0.4852,-0.4841,-0.4836,-0.4836,-0.4823,-0.4822,-0.4817,-0.4812,-0.4808,-0.4824,-0.4815,-0.4823,-0.4837,-0.4839,-0.4842,-0.4843,-0.485,-0.4852,-0.4825,-0.4825,-0.4825,0,-0.4894,-0.4892,-0.4878,-0.4878,-0.4875,-0.4859,-0.4862,-0.4857,-0.4848,-0.4846,-0.4839,-0.4833,-0.4826,-0.4828,-0.4832,-0.4829,-0.483,-0.4825,-0.4842,-0.4844,-0.4846,-0.4851,-0.4854,-0.4826,-0.4826,-0.4825,-0.4825,0,-0.491,-0.4908,-0.4911,-0.4902,-0.4899,-0.4901,-0.4888,-0.4886,-0.4878,-0.487,-0.487,-0.4862,-0.4856,-0.4856,-0.4848,-0.4857,-0.4853,-0.4845,-0.4834,-0.485,-0.4855,-0.4857,-0.4827,-0.4827,-0.4827,-0.4826,0,0,-0.4942,-0.4925,-0.4926,-0.4922,-0.491,-0.4909,-0.491,-0.4904,-0.4903,-0.4897,-0.4898,-0.4894,-0.4886,-0.4882,-0.4873,-0.4875,-0.4889,-0.4866,-0.4866,-0.4871,-0.4898,-0.4906,-0.4908,-0.4882,-0.4883,-0.4883,-0.4899,0,-0.4959,-0.4959,-0.4947,-0.4951,-0.4949,-0.4934,-0.4935,-0.4928,-0.492,-0.4918,-0.4909,-0.4907,-0.4896,-0.4894,-0.4895,-0.4887,-0.4894,-0.4885,-0.4883,-0.4883,-0.4887,-0.4911,-0.4918,-0.4934,-0.4901,-0.4901,-0.4902,0,-0.4979,-0.4973,-0.4977,-0.4965,-0.4964,-0.4965,-0.4959,-0.4957,-0.4949,-0.4943,-0.4938,-0.4928,-0.4928,-0.4917,-0.4917,-0.4912,-0.491,-0.4905,-0.4906,-0.4906,-0.4894,-0.4912,-0.4939,-0.4942,-0.4905,-0.4904,-0.4904,0,-0.5002,-0.4996,-0.4997,-0.4994,-0.498,-0.4981,-0.4975,-0.4967,-0.4964,-0.4959,-0.4957,-0.4952,-0.4949,-0.4945,-0.4934,-0.4927,-0.4935,-0.4923,-0.4931,-0.4931,-0.4934,-0.4934,-0.4962,-0.4932,-0.4932,-0.4932,-0.4932,0,-0.5023,-0.5026,-0.5008,-0.5009,-0.5012,-0.4998,-0.5001,-0.4994,-0.4986,-0.4985,-0.4972,-0.4971,-0.4956,-0.4954,-0.4945,-0.4946,-0.4945,-0.4941,-0.4938,-0.4942,-0.4943,-0.4942,-0.4941,-0.4932,-0.4932,-0.4932,-0.4932,0,-0.5051,-0.5038,-0.5039,-0.5026,-0.5022,-0.5025,-0.5014,-0.5014,-0.5005,-0.5005,-0.5004,-0.499,-0.4987,-0.4975,-0.4969,-0.4963,-0.4968,-0.4963,-0.4971,-0.4969,-0.4978,-0.4978,-0.5006,-0.501,-0.4977,-0.4977,-0.4977,0,-0.5065,-0.5067,-0.5054,-0.5052,-0.5047,-0.5045,-0.5042,-0.5028,-0.5026,-0.5016,-0.5018,-0.5014,-0.501,-0.5005,-0.4995,-0.499,-0.4986,-0.4996,-0.4985,-0.4989,-0.4987,-0.4987,-0.4987,-0.4999,-0.4999,-0.5,-0.5,0,-0.5092,-0.5086,-0.5082,-0.5077,-0.5074,-0.5069,-0.5063,-0.5062,-0.5046,-0.5044,-0.5041,-0.5038,-0.5032,-0.5028,-0.5021,-0.5015,-0.5005,-0.5003,-0.5005,-0.5009,-0.5014,-0.5012,-0.4978,-0.5003,-0.5003,-0.5002,-0.5002,-0.5002,-0.5114,-0.5115,-0.5106,-0.5103,-0.5096,-0.5091,-0.5091,-0.5082,-0.5079,-0.5073,-0.5064,-0.5062,-0.5053,-0.5044,-0.5039,-0.5037,-0.5031,-0.5033,-0.5034,-0.5035,-0.5037,-0.5014,-0.5035,-0.5035,-0.5035,-0.5035,-0.5035,0,-0.5141,-0.5134,-0.5131,-0.5123,-0.512,-0.511,-0.5103,-0.5102,-0.51,-0.5092,-0.5089,-0.5085,-0.5081,-0.507,-0.5065,-0.5065,-0.5061,-0.5065,-0.5065,-0.5064,-0.5042,-0.5042,-0.5069,-0.5069,-0.5069,-0.5069,-0.5069,-0.5069,-0.5155,-0.5157,-0.5149,-0.5147,-0.514,-0.5138,-0.5135,-0.513,-0.5124,-0.512,-0.5117,-0.511,-0.5101,-0.5095,-0.5091,-0.5088,-0.5087,-0.5093,-0.5088,-0.5069,-0.5065,-0.5062,-0.5062,-0.5093,-0.5093,-0.511,-0.511,-0.511]},{"header":{"parameterUnit":"m.s-1","parameterCategory":1,"la1":30.2991,"la2":30.254,"lo1":-89.0895,"lo2":-89.0444,"dy":0.0017,"dx":0.0017,"nx":28,"ny":28,"refTime":"2024-03-02T03:00:00:Z","depth":0,"parameterNumber":3,"parameterNumberName":"V-component_of_WINDS"},"data":[0,0,0,0,0,0,0,0,0,0,0,0,0,0,0,0,0,0,0,0,0,0,0,0,0,0,0,0,0,0,0,0,0,0,0,0,0,0,0,0,0,0,0,0,0,0,0,0,0,0,0,0,0,0,0,0,0,0,-2.7798,-2.7799,0,-2.7855,-2.7856,-2.7857,-2.7838,-2.7836,-2.7835,-2.7834,-2.7888,-2.7891,-2.7893,0,0,0,0,0,0,0,0,0,0,0,0,0,-2.7668,-2.767,-2.7798,-2.7799,-2.7799,-2.7855,-2.7856,-2.7857,-2.7838,-2.7836,-2.7835,-2.7834,-2.7888,-2.7891,-2.7894,0,0,0,0,0,0,0,0,0,0,0,0,0,-2.7725,-2.7671,-2.7798,-2.7797,-2.7797,-2.7855,-2.7856,-2.7857,-2.7838,-2.7836,-2.7835,-2.7833,-2.7887,-2.789,-2.7894,-2.7955,0,0,-2.7906,-2.7908,0,0,0,0,0,0,0,0,-2.7721,-2.7729,-2.7796,-2.7797,-2.7798,-2.7838,-2.783,-2.789,-2.7839,-2.7823,-2.7834,-2.7832,-2.7873,-2.7878,-2.7892,-2.7958,-2.796,-2.7906,-2.7909,-2.791,-2.7911,0,0,0,0,0,0,0,-2.7718,-2.7727,-2.782,-2.7797,-2.7798,-2.7792,-2.7798,-2.7841,-2.7857,-2.7824,-2.7823,-2.783,-2.7873,-2.7889,-2.7893,-2.7961,-2.7906,-2.791,-2.7912,-2.7914,-2.8079,-2.8081,0,0,0,0,0,0,-2.7714,-2.7724,-2.7819,-2.7822,-2.7754,-2.7796,-2.7803,-2.7827,-2.7857,-2.786,-2.7831,-2.7829,-2.7883,-2.7889,-2.7895,-2.7969,-2.791,-2.7914,-2.7916,-2.8077,-2.8079,-2.8081,0,0,0,0,0,0,-2.7711,-2.7722,-2.7816,-2.7773,-2.7784,-2.78,-2.7827,-2.7829,-2.7845,-2.7862,-2.7865,-2.7845,-2.7882,-2.789,-2.7941,-2.797,-2.7916,-2.7919,-2.8074,-2.8077,-2.808,-2.8116,0,0,0,0,0,0,-2.7707,-2.7722,-2.7746,-2.7773,-2.7787,-2.7862,-2.7829,-2.7831,-2.7852,-2.7849,-2.7876,-2.7878,-2.7881,-2.7935,-2.7945,-2.7975,-2.7922,-2.8072,-2.8076,-2.8079,-2.8112,-2.812,-2.8127,0,0,0,0,0,-2.7703,-2.7753,-2.7747,-2.7759,-2.7818,-2.7864,-2.7871,-2.7874,-2.7854,-2.7878,-2.789,-2.7878,-2.7966,-2.794,-2.7951,-2.7983,-2.807,-2.8075,-2.8079,-2.8109,-2.8119,-2.8127,0,0,0,0,0,0,-2.7726,-2.7756,-2.775,-2.7811,-2.7835,-2.7861,-2.7891,-2.7884,-2.7913,-2.7909,-2.791,-2.7917,-2.7969,-2.7981,-2.7952,-2.8043,-2.8014,-2.8021,-2.8034,-2.8043,-2.805,-2.8046,-2.7926,0,0,0,0,0,-2.7739,-2.7776,-2.7799,-2.785,-2.7863,-2.7875,-2.7895,-2.7896,-2.792,-2.793,-2.7945,-2.7968,-2.8001,-2.8022,-2.8054,-2.8114,-2.8119,-2.8141,-2.8148,-2.8154,-2.816,-2.8193,-2.8203,-2.8097,-2.8097,-2.8096,0,0,-2.7764,-2.7785,-2.7808,-2.7855,-2.7874,-2.7911,-2.7884,-2.7923,-2.795,-2.7935,-2.7985,-2.7997,-2.8022,-2.8079,-2.8104,-2.809,-2.819,-2.816,-2.8164,-2.8167,-2.8199,-2.8209,-2.8218,-2.81,-2.8099,-2.8099,0,0,-2.783,-2.785,-2.7895,-2.7915,-2.7944,-2.7952,-2.7963,-2.799,-2.7998,-2.8048,-2.8037,-2.8069,-2.8125,-2.8144,-2.8161,-2.8235,-2.8225,-2.8245,-2.8282,-2.8314,-2.8323,-2.833,-2.8356,-2.8366,-2.8251,-2.8251,-2.8251,0,-2.7858,-2.7915,-2.7918,-2.796,-2.7981,-2.797,-2.8015,-2.8034,-2.8071,-2.8085,-2.807,-2.8141,-2.8157,-2.8218,-2.8236,-2.825,-2.8262,-2.8242,-2.8321,-2.8329,-2.8336,-2.8361,-2.8371,-2.8253,-2.8253,-2.8252,-2.8252,0,-2.7947,-2.7986,-2.8019,-2.8058,-2.8082,-2.8125,-2.8134,-2.8158,-2.8156,-2.8166,-2.8216,-2.8236,-2.8271,-2.8285,-2.8283,-2.8346,-2.8336,-2.8321,-2.8292,-2.8348,-2.8372,-2.8381,-2.8256,-2.8255,-2.8255,-2.8254,0,0,-2.8029,-2.807,-2.8082,-2.81,-2.8132,-2.8162,-2.8204,-2.824,-2.826,-2.8286,-2.8321,-2.837,-2.8356,-2.8375,-2.8375,-2.8403,-2.8461,-2.8384,-2.8385,-2.8398,-2.8531,-2.8542,-2.8554,-2.8454,-2.8456,-2.8457,-2.8529,0,-2.8098,-2.8174,-2.8179,-2.8247,-2.8283,-2.8274,-2.8311,-2.8333,-2.8343,-2.8374,-2.8384,-2.8419,-2.8398,-2.8409,-2.8437,-2.8448,-2.8487,-2.8443,-2.8486,-2.8487,-2.848,-2.8566,-2.8578,-2.8645,-2.8538,-2.8539,-2.8541,0,-2.8188,-2.8219,-2.8292,-2.832,-2.8335,-2.8368,-2.8402,-2.8432,-2.8457,-2.8462,-2.8484,-2.848,-2.8522,-2.8492,-2.8549,-2.8519,-2.8536,-2.8545,-2.8547,-2.8551,-2.8518,-2.8573,-2.8666,-2.8676,-2.8555,-2.8554,-2.8553,0,-2.8241,-2.8301,-2.8352,-2.8368,-2.8401,-2.8424,-2.8439,-2.8463,-2.8485,-2.8513,-2.8527,-2.856,-2.8578,-2.8602,-2.8607,-2.8584,-2.8664,-2.8634,-2.8669,-2.8669,-2.8686,-2.8685,-2.8784,-2.8697,-2.8697,-2.8697,-2.8697,0,-2.8318,-2.8362,-2.8377,-2.8408,-2.8458,-2.8462,-2.8511,-2.8524,-2.8545,-2.8578,-2.8571,-2.8602,-2.8606,-2.8637,-2.8641,-2.8688,-2.8695,-2.87,-2.87,-2.8701,-2.8701,-2.8713,-2.8708,-2.87,-2.8699,-2.8698,-2.8698,0,-2.8385,-2.8397,-2.8452,-2.848,-2.8488,-2.8523,-2.8546,-2.8576,-2.8585,-2.8627,-2.8637,-2.865,-2.8687,-2.8694,-2.8737,-2.8739,-2.8795,-2.8791,-2.8787,-2.8787,-2.8821,-2.8818,-2.8932,-2.8947,-2.885,-2.8851,-2.8852,0,-2.8434,-2.8468,-2.85,-2.8523,-2.8539,-2.8575,-2.8598,-2.8603,-2.8627,-2.8659,-2.8684,-2.8721,-2.875,-2.8809,-2.8821,-2.8854,-2.885,-2.8888,-2.8855,-2.8855,-2.8851,-2.8849,-2.8853,-2.8894,-2.8895,-2.8896,-2.8897,0,-2.8518,-2.8523,-2.8556,-2.8592,-2.862,-2.8648,-2.8674,-2.8693,-2.8701,-2.8728,-2.8766,-2.8789,-2.8834,-2.887,-2.8902,-2.8915,-2.8908,-2.8907,-2.8917,-2.8918,-2.8915,-2.8917,-2.8805,-2.8904,-2.8904,-2.8903,-2.8903,-2.8902,-2.8578,-2.8609,-2.8636,-2.8674,-2.8695,-2.872,-2.875,-2.8763,-2.8796,-2.8834,-2.8835,-2.8877,-2.8901,-2.8944,-2.896,-2.8992,-2.8979,-2.8994,-2.8997,-2.9001,-2.9004,-2.891,-2.8997,-2.8997,-2.8997,-2.8997,-2.8997,0,-2.8663,-2.868,-2.8715,-2.8754,-2.8783,-2.8775,-2.8804,-2.8829,-2.8866,-2.889,-2.892,-2.8964,-2.8999,-2.9015,-2.9049,-2.9071,-2.9069,-2.908,-2.9079,-2.9082,-2.9013,-2.9001,-2.9082,-2.9082,-2.9082,-2.9082,-2.9082,-2.9082,-2.871,-2.8762,-2.8769,-2.8831,-2.8847,-2.889,-2.8908,-2.893,-2.895,-2.9,-2.903,-2.9041,-2.9061,-2.9097,-2.9128,-2.9132,-2.9144,-2.9158,-2.916,-2.9095,-2.9087,-2.9078,-2.9067,-2.9161,-2.9161,-2.9226,-2.9227,-2.9227]}]]